Other Public Products
Issued by NWS Grand Forks, ND

Home | Current Version | Previous Version | Graphics & Text | Print | Product List | Glossary On
Versions: 1 2 3 4 5 6 7 8 9 10 11 12 13 14 15 16 17 18 19 20 21 22 23 24 25 26 27 28 29 30 31 32 33 34 35 36 37 38 39 40 41 42 43 44 45 46 47 48 49 50
000
FPUS83 KFGF 060010
OPUFGF
PRAIRIE TO PINES WEATHER ROUNDUP
NATIONAL WEATHER SERVICE EASTERN NORTH DAKOTA/GRAND FORKS ND
700 PM CDT THU MAY 05 2016

 **SATELLITE DATA USED TO AUGMENT SKY COVER AT AUTOMATED STATIONS**
 *****  WEATHER ACROSS EASTERN NORTH DAKOTA  *****

CITY           SKY/WX    TMP DP  RH WIND       PRES   REMARKS
GRAND FORKS    MOSUNNY   90  35  14 SW16      29.71F
6HR MIN TEMP:  90; 6HR MAX TEMP:  93;

GRAND FORKS AF SUNNY     88  34  14 W10       29.72F
GRAND CITY NWS NOT AVBL
BUXTON         NOT AVBL
DEVILS LAKE    SUNNY     82  42  24 SW10      29.75F
6HR MIN TEMP:  82; 6HR MAX TEMP:  88;

FARGO          SUNNY     88  37  16 SW12      29.75F
6HR MIN TEMP:  87; 6HR MAX TEMP:  91;

WAHPETON ARPT  CLEAR     84  30  14 SW16      29.80S
$$

 *****  WEATHER ACROSS CENTRAL AND WESTERN NORTH DAKOTA  *****

CITY           SKY/WX    TMP DP  RH WIND       PRES   REMARKS
JAMESTOWN      SUNNY     86  40  19 SW14      29.76F
6HR MIN TEMP:  84; 6HR MAX TEMP:  88;

BISMARCK       CLOUDY    87  43  21 SW6       29.78S
6HR MIN TEMP:  83; 6HR MAX TEMP:  88;

MINOT          CLOUDY    92  36  14 SW10G17   29.73S
6HR MIN TEMP:  90; 6HR MAX TEMP:  95;

MINOT AFB      CLOUDY    89  40  17 W8        29.71F
6HR MIN TEMP:  86; 6HR MAX TEMP:  91;

GARRISON         N/A     86  40  19 S7        29.76F
6HR MIN TEMP:  84; 6HR MAX TEMP:  90;

WILLISTON      CLOUDY    86  35  16 SW10      29.74F
6HR MIN TEMP:  85; 6HR MAX TEMP:  90;

DICKINSON      PTSUNNY   83  35  18 W9        29.79F
6HR MIN TEMP:  80; 6HR MAX TEMP:  86;

HETTINGER      MOSUNNY   79  45  29 S7        29.84S
6HR MIN TEMP:  78; 6HR MAX TEMP:  84;

$$

 *****  OTHER OBSERVATIONS NORTHEAST NORTH DAKOTA  *****

CITY           SKY/WX    TMP DP  RH WIND       PRES   REMARKS
WALHALLA       FAIR      90  39  17 W10G24    29.67F
LANGDON        FAIR      88  37  16 SW16G26   29.73S
CAVALIER       FAIR      90  37  15 SW13      29.67F
GRAFTON        FAIR      88  39  18 SW16G24   29.71S
CANDO          FAIR      86  36  16 W13       29.74F
FORT TOTTEN      N/A     87  34  15 SW7       29.95S
ROLLA            N/A     86  36  16 SW14      29.73S
RUGBY          FAIR      86  39  19 SW12      29.72F
 ***** THE ABOVE OBSERVATIONS ARE NON NWS ARE NOT QUALITY
        CONTROLLED AND MAY MIS-REPORT RAIN FOR SNOW...
$$

 *****  OTHER OBSERVATIONS SOUTHEAST NORTH DAKOTA *****

CITY           SKY/WX    TMP DP  RH WIND       PRES   REMARKS
COOPERSTOWN    NOT AVBL
VALLEY CITY    FAIR      86  41  20 W15G23    29.79F
OAKES            N/A    N/A N/A N/A MISG        N/A
GWINNER        FAIR      88  37  16 SW15      29.81S
SHEYENNE NWR     N/A     88  38  17 SW12      29.95
BUFFALO        NOT AVBL
WYNDMERE         N/A     88  37  16 SW15        N/A
 ***** THE ABOVE OBSERVATIONS ARE NON NWS ARE NOT QUALITY
       CONTROLLED AND MAY MIS-REPORT RAIN FOR SNOW...
$$

  *****  WEATHER ACROSS NORTHERN MINNESOTA  *****

CITY           SKY/WX    TMP DP  RH WIND       PRES   REMARKS
FLAG ISLAND    SUNNY     81  36  19 NW8       29.66S
WARROAD        SUNNY     88  48  25 CALM      29.68S
ROSEAU         SUNNY     90  30  12 NW6       29.68S
HALLOCK        SUNNY     90  27  10 W18       29.66F
THF RVR FALLS  SUNNY     90  34  13 SW15      29.74S
6HR MIN TEMP:  82; 6HR MAX TEMP:  91;

HALSTAD        NOT AVBL
FOSSTON        SUNNY     88  30  12 W12       29.77S
BAUDETTE       SUNNY     86  40  19 NW8       29.68S
6HR MIN TEMP:  81; 6HR MAX TEMP:  91;

WASKISH        SUNNY     75  46  35 SW14      29.72S
CROOKSTON      SUNNY     90  34  13 W15       29.73F
$$
  *****  WEATHER ACROSS CENTRAL AND WEST MINNESOTA  *****

CITY           SKY/WX    TMP DP  RH WIND       PRES   REMARKS
BEMIDJI        SUNNY     85  36  17 W16G22    29.76F
PARK RAPIDS    CLOUDY    84  37  18 W14       29.79F
6HR MIN TEMP:  79; 6HR MAX TEMP:  86;

WADENA         MOSUNNY   82  43  24 SW13G20   29.82S
DETROIT LAKES  SUNNY     82  34  17 SW12      29.82F
MOORHEAD       SUNNY     90  32  12 SW15G21   29.77F
FERGUS FALLS   SUNNY     84  41  21 SW13      29.77F
ELBOW LAKE     FAIR      83  39  21 SW13      29.84S
6HR MIN TEMP:  78; 6HR MAX TEMP:  85;

MORRIS MN      SUNNY     82  41  23 SW14      29.84S
STAPLES        SUNNY     82  37  20 SW8       29.82F
WHEATON        SUNNY     86  43  22 SW12      29.84F
$$
  *****  WEATHER ELSEWHERE ACROSS MINNESOTA  *****

CITY           SKY/WX    TMP DP  RH WIND       PRES   REMARKS
DULUTH         SUNNY     77  40  26 W17       29.80F
6HR MIN TEMP:  64; 6HR MAX TEMP:  79;

INTRNTL FALLS  CLOUDY    86  45  23 SW6       29.68F
6HR MIN TEMP:  79; 6HR MAX TEMP:  89;

ELY            SUNNY     81  37  21 SW8       29.75F
CLOQUET        SUNNY     79  34  19 SW14      29.81F
BRAINERD       SUNNY     80  41  24 SW15      29.83F
6HR MIN TEMP:  74; 6HR MAX TEMP:  82;

HIBBING        SUNNY     80  40  23 W10       29.77F
6HR MIN TEMP:  64; 6HR MAX TEMP:  81;

ALEXANDRIA     SUNNY     81  42  25 SW12      29.86F
6HR MIN TEMP:  76; 6HR MAX TEMP:  84;

SAINT CLOUD    SUNNY     80  40  23 SW10      29.86F
6HR MIN TEMP:  72; 6HR MAX TEMP:  81;

MINNEAPOLIS    SUNNY     78  35  21 SW7       29.89F
6HR MIN TEMP:  64; 6HR MAX TEMP:  79; 6HR PCP: TRACE;

$$

  *****  WEATHER ACROSS SOUTH DAKOTA  *****

CITY           SKY/WX    TMP DP  RH WIND       PRES   REMARKS
SIOUX FALLS    MOSUNNY   75  46  35 S8        29.93F
6HR MIN TEMP:  71; 6HR MAX TEMP:  76;

BROOKINGS      SUNNY     77  46  33 S10       29.91F
WATERTOWN      SUNNY     79  40  24 SW15      29.89F
6HR MIN TEMP:  78; 6HR MAX TEMP:  83;

HURON          SUNNY     81  40  23 S13       29.86F
6HR MIN TEMP:  79; 6HR MAX TEMP:  84;

SISSETON         N/A     84  39  20 SW13      29.82F
ABERDEEN       SUNNY     86  36  16 S17G25    29.83S
6HR MIN TEMP:  85; 6HR MAX TEMP:  90;

MITCHELL       SUNNY     81  42  25 S10       29.89F
PIERRE         SUNNY     82  51  34 SE14      29.80F
6HR MIN TEMP:  82; 6HR MAX TEMP:  87;

MOBRIDGE       SUNNY     86  32  14 S9        29.78S
RAPID CITY     CLOUDY    79  51  37 E7        29.87F
6HR MIN TEMP:  79; 6HR MAX TEMP:  84;

$$

  *****  SOME WEATHER IN NEARBY STATES *****

CITY           SKY/WX    TMP DP  RH WIND       PRES   REMARKS
GLASGOW MT     CLOUDY    84  42  22 CALM      29.77S
6HR MIN TEMP:  75; 6HR MAX TEMP:  87;

GREAT FALLS MT CLOUDY    77  40  26 N7        29.85S
6HR MIN TEMP:  71; 6HR MAX TEMP:  80;

CHEYENNE WY    CLOUDY    73  32  22 S8        30.05F
6HR MIN TEMP:  71; 6HR MAX TEMP:  78;

SCOTTSBLUFF NE CLOUDY    81  41  24 E3        29.93F
6HR MIN TEMP:  77; 6HR MAX TEMP:  85;

OMAHA NE       PTSUNNY   76  43  30 SE8       29.99F
6HR MIN TEMP:  72; 6HR MAX TEMP:  79;

DES MOINES IA  MOSUNNY   71  33  24 CALM      30.00F
6HR MIN TEMP:  64; 6HR MAX TEMP:  72;

DAVENPORT IA   SUNNY     66  34  30 NW5       29.99F
6HR MIN TEMP:  60; 6HR MAX TEMP:  68;

CHICAGO IL     PTCLDY    57  38  48 E6        29.96F
6HR MIN TEMP:  57; 6HR MAX TEMP:  61;

EAU CLAIRE WI  MOSUNNY   69  38  32 S5        29.93F
6HR MIN TEMP:  63; 6HR MAX TEMP:  70;

LA CROSSE WI   CLOUDY    70  36  28 CALM      29.94F
6HR MIN TEMP:  62; 6HR MAX TEMP:  71;

$$

  *****  SOME NATIONAL WEATHER *****

CITY           SKY/WX    TMP DP  RH WIND       PRES   REMARKS
LA GUARDIA NY  CLOUDY    57  48  72 NE14G24   29.65R               C1F1C2F2C3F3C4F4C5F5C6F6C7F7C8F8C9F9CaFaCbFbCcFcCdFdCe!



USA.gov is the U.S. government's official web portal to all federal, state and local government web resources and services.